Location: Vancouver
(49.2500°N, 123.1330°W)
Time: 10:34:18
(UTC-07:00)

Oscar 11 - Visible Passes

Search period start: 07 July 2015 00:00
Search period end: 17 July 2015 00:00
Orbit: 615 x 628 km, 97.8° (Epoch: 06 July)

Date Brightness Start Highest point End Pass type
(mag) Time Alt. Az. Time Alt. Az. Time Alt. Az.
07 Jul 8.6 22:37:47 10° SSW 22:41:40 32° W 22:45:33 10° NNW visible
08 Jul 9.2 22:56:10 10° SW 22:59:35 22° W 23:02:57 10° NW visible
09 Jul 9.6 23:14:57 10° SW 23:17:34 15° W 23:20:02 10° NW visible
10 Jul 7.2 21:54:17 10° SSE 21:58:37 85° WSW 22:02:59 10° NNW visible
10 Jul 10.0 23:35:14 10° W 23:35:35 10° W 23:35:42 10° W visible
11 Jul 7.7 22:12:09 10° S 22:16:23 56° W 22:20:41 10° NNW visible
12 Jul 8.3 22:30:12 10° SSW 22:34:13 38° W 22:38:16 10° NNW visible
13 Jul 9.0 22:48:28 10° SSW 22:52:07 26° W 22:55:43 10° NW visible
14 Jul 9.5 23:07:02 10° SW 23:10:03 18° W 23:12:57 10° NW visible
15 Jul 7.1 21:46:53 10° SSE 21:51:12 82° ENE 21:55:33 10° NNW visible
15 Jul 9.7 23:26:16 10° WSW 23:28:03 12° W 23:29:40 10° WNW visible
16 Jul 7.4 22:04:39 10° S 22:08:57 67° WSW 22:13:17 10° NNW visible
